AirNav   Air Wisconsin Up To $57,000 Bonus
 
 1033 users online  

WA80 Mc Clellan Field Airport
Amboy, Washington, USA

GOING TO AMBOY?


FAA INFORMATION EFFECTIVE 02 DECEMBER 2021

Location

FAA Identifier: WA80
Lat/Long: 45-53-39.4070N 122-32-53.3570W
45-53.656783N 122-32.889283W
45.8942797,-122.5481547
(estimated)
Elevation: 840 ft. / 256 m (estimated)
Variation: 20E (1985)
From city: 4 miles WSW of AMBOY, WA
Time zone: UTC -8 (UTC -7 during Daylight Saving Time)
Zip code: 98629

Airport Operations

Airport use: Private use. Permission required prior to landing
Activation date: 08/1976
Control tower: no
ARTCC: SEATTLE CENTER
FSS: SEATTLE FLIGHT SERVICE STATION
Attendance: CONTINUOUS
Wind indicator: yes
Segmented circle: no

Airport Communications

WX ASOS at SPB (15 nm SW): 135.875 (503-543-6401)
WX ASOS at VUO (17 nm S): 135.125 (360-696-1280)
WX ASOS at PDX (18 nm S): PHONE (503) 493-7687
WX AWOS-3PT at KLS (20 nm NW): 135.075 (360-577-1964)

Nearby radio navigation aids

VOR radial/distance  VOR name  Freq  Var
BTGr351/9.0BATTLE GROUND VORTAC116.6021E
UBGr008/37.1NEWBERG VOR/DME117.4021E

 
NDB name  Hdg/Dist  Freq  Var  ID
BANKS037/26.235616EPND .--. -. -..

Airport Services

Runway Information

Runway 17/35

Dimensions: 1300 x 40 ft. / 396 x 12 m
Surface: turf
RUNWAY 17  RUNWAY 35
Traffic pattern: leftleft
Obstructions: 5 ft. fence, 25 ft. from runway5 ft. fence

Airport Ownership and Management from official FAA records

Ownership: Privately-owned
Owner: JAMES L. MC CLELLAN
12117 NE 379TH STREET
LACENTER, WA 98629
Phone (360) 263-3543
Manager: JAMES L. MC CLELLAN
12117 NE 379TH STREET
LACENTER, WA 98629
Phone (360) 263-3543

Airport Operational Statistics

Aircraft based on the field: 1
Single engine airplanes: 1
    

Additional Remarks

FOR CD CTC PORTLAND APCH AT 503-493-7545.

Instrument Procedures

There are no published instrument procedures at WA80.

Some nearby airports with instrument procedures:

KSPB - Scappoose Airport (15 nm SW)
KVUO - Pearson Field Airport (17 nm S)
KPDX - Portland International Airport (18 nm S)
KKLS - Southwest Washington Regional Airport (20 nm NW)
KTTD - Portland-Troutdale Airport (22 nm S)
 
Loc | Ops | Rwys | IFR | FBO | Links
Com | Nav | Svcs | Stats | Notes
Area around WA80 (Mc Clellan Field Airport)
 
Road maps at: MapQuest Bing Google
 
Aerial photo
No photo
 
Sectional chart

 
Airport distance calculator
Flying to Mc Clellan Field Airport? Find the distance to fly.

From to WA80

Sunrise and sunset
Times for 07-Dec-2021
 Local
(UTC-8)
 Zulu
(UTC)
Morning civil twilight07:0515:05
Sunrise07:3915:39
Sunset16:2400:24
Evening civil twilight16:5900:59

Current date and time
Zulu (UTC)  08-Dec-2021 00:04:13
Local (UTC-8)  07-Dec-2021 16:04:13
 
METAR
KSPB 
15nm SW 
072353Z AUTO 00000KT 1SM BR SCT002 OVC011 09/08 A2999 RMK AO2 RAE38 SLP154 P0001 60003 T00890078 10094 20078 55009
KVUO 
17nm S 
072353Z AUTO 11004KT 2SM BR OVC004 07/07 A3000 RMK AO2 RAE24 CIG 002V007 SLP159 P0001 60003 T00720067 10072 20067 58007
KPDX 
19nm S 
072353Z 11004KT 2 1/2SM BR OVC004 08/07 A3000 RMK AO2 SFC VIS 4 RAE07 SLP158 P0001 60003 T00780067 10083 20072 56012
KKLS 
20nm NW 
072356Z AUTO 13005KT 10SM BKN005 OVC029 10/09 A2999 RMK AO2 CIG 004V007 SLP158 60001 T01000089 10100 20083 58014
KTTD 
21nm S 
072353Z 07006KT 5SM BR BKN004 OVC010 07/06 A3000 RMK AO2 RAE05B17E41 SLP158 P0001 60001 T00720056 10072 20067 56007 $
KHIO 
27nm SW 
072353Z 01003KT 5SM BR OVC005 11/10 A2998 RMK AO2 SLP154 T01060100 10111 20089 56012
TAF
KPDX 
19nm S 
072007Z 0720/0818 12007KT P6SM OVC009 FM072200 18005KT P6SM -SHRA SCT008 OVC018 FM080600 24008KT 6SM -RA BR BKN015 OVC040
KTTD 
21nm S 
071740Z 0718/0818 09011G20KT 6SM -SHRA BR OVC012 FM072200 10005KT 5SM BR VCSH SCT010 OVC018
NOTAMs
Click for the latest NOTAMs
NOTAMs are issued by the DoD/FAA and will open in a separate window not controlled by AirNav.

 

 
 

Would you like to see your business listed on this page?

 If your business provides an interesting product or service to pilots, flight crews, aircraft, or users of the Mc Clellan Field Airport, you should consider listing it here.  To start the listing process, click on the button below
 
Add a business
 

Other Pages about Mc Clellan Field Airport

Update a link
 
Copyright © AirNav, LLC. All rights reserved. Privacy Policy  Contact